Location: Central Falls
(41.8900°N, 71.3929°W)
Time: 03:44:51
(UTC+00:00)

Tiros 1 - Pass Details

Date: 11 December 2023
Orbit: 625 x 658 km, 48.4° (Epoch: 01 March)

Event Time Altitude Azimuth Distance (km) Brightness Sun altitude
Rises 13:35:58 0° 290° (WNW) 2,987 10.0 12.6°
Reaches altitude 10° 13:38:43 10° 275° (W) 2,070 9.4 12.9°
Maximum altitude 13:42:24 22° 225° (SW) 1,411 9.1 13.4°
Drops below altitude 10° 13:46:04 10° 174° (S) 2,051 10.8 13.8°
Sets 13:48:47 0° 159° (SSE) 2,952 12.0 14.1°
